User: anonymous   Login
Location: Nelson
(41.2830°S, 173.2830°E)
Time: 05:06:25
(UTC+13:00)
Language:

Cosmos 1818 - Orbit

View from above orbital plane
View from above orbital plane
View from above satellite
View from above satellite

Ground track
Ground track

The orbit data is extracted from the following two-line orbital elements,

1 17369U 87011A   19079.46116705 -.00000052  00000-0  18044-4 0  9998
2 17369  65.0097  97.5280 0021623 263.6896  96.1725 14.31443619730411
Epoch (UTC): 20 March 2019 11:04:04
Eccentricity: 0.0021623
inclination: 65.0097°
perigee height: 771 km
apogee height: 802 km
right ascension of ascending node: 97.5280°
argument of perigee: 263.6896°
revolutions per day: 14.31443619
mean anomaly at epoch: 96.1725°
orbit number at epoch: 73041

The dashed part of the orbit path shows where the satellite is in the earth's shadow,  

DLR